Regional Weather Roundup
Issued by NWS Cleveland, OH

Home | Current Version | Previous Version | Graphics & Text | Print | Product List | Glossary On
Versions: 1 2 3 4 5 6 7 8 9 10 11 12 13 14 15 16 17 18 19 20 21 22 23 24 25 26 27 28 29 30 31 32 33 34 35 36 37 38 39 40 41 42 43 44 45 46 47 48 49 50
000
ASUS41 KCLE 010202
RWRCLE
OHIO REGIONAL WEATHER ROUNDUP
NATIONAL WEATHER SERVICE CLEVELAND, OH
1000 PM EDT SUN AUG 31 2014

NOTE: "FAIR" INDICATES FEW OR NO CLOUDS BELOW 12,000 FEET WITH NO
SIGNIFICANT WEATHER AND/OR OBSTRUCTIONS TO VISIBILITY.

OHZ001>008-015>018-024>027-034-035-043-044-010300-
   NORTHWEST OHIO

CITY           SKY/WX    TMP DP  RH WIND       PRES   REMARKS
DEFIANCE       CLEAR     74  68  81 S3        29.95S
FINDLAY        CLEAR     73  69  87 S7        29.97R
TOLEDO EXPRESS CLEAR     73  69  87 S5        29.95R
TOLEDO EXEC    CLEAR     74  68  81 S6        29.96R
LIMA           CLEAR     72  69  90 S6        29.98R
$$

OHZ009>014-019>023-028>033-038-089-010300-
   NORTHEAST OHIO

CITY           SKY/WX    TMP DP  RH WIND       PRES   REMARKS
CLE-HOPKINS    PTCLDY    73  70  90 S8        30.00R
CLE-LAKEFRONT  CLEAR     76  70  82 S7        29.96S
CUY CO. ARPT   CLEAR     77  73  88 S8        29.99S
LORAIN-ELYRIA  CLEAR     74  68  81 S6        29.99R
ASHTABULA      PTCLDY    70  68  93 S5        30.00S
AKRON-CANTON   MOCLDY    73  69  87 S8        30.02R
WOOSTER        CLEAR     71  68  90 S5        30.02S
MANSFIELD      CLEAR     71  70  96 S6        30.02R
YOUNGSTOWN     PTCLDY    70  69  97 S5        30.02S
$$

OHZ042-051>053-060>062-070>072-077>081-010300-
  SOUTHWEST OHIO

CITY           SKY/WX    TMP DP  RH WIND       PRES   REMARKS
CINC-COVINGTON PTCLDY    72  68  87 S6        30.01R
CINC-LUNKEN    CLEAR     72  69  90 S5        30.01R
HAMILTON       MOCLDY    72  71  97 CALM      30.01R
DAYTON         MOCLDY    76  69  79 S5        30.02R
WRIGHT-PAT AFB MOCLDY    76  72  87 S7        30.00R
DAYTON GENERAL CLOUDY    74  70  87 S6        30.01R
WILMINGTON     CLEAR     70  67  90 SE3       30.02R
$$

OHZ036-037-039>041-045>050-054>059-063>069-073>076-082>088-010300-
  CENTRAL AND SOUTHEAST OHIO

CITY           SKY/WX    TMP DP  RH WIND       PRES   REMARKS
COLUMBUS       MOCLDY    77  68  73 S6        30.01R
OSU AIRPORT    MOCLDY    75  69  81 S12       30.01R
BOLTON FIELD   MOCLDY    72  70  95 S6        30.02S
RICKENBACK AFB PTCLDY    71  65  81 S5        30.01R
NEWARK         CLEAR     73  69  87 S5        30.02R
MARION         CLEAR     72  69  90 S8        30.00S
LANCASTER      CLEAR     73  69  87 S5        30.03R
ZANESVILLE     CLEAR     71  68  90 S6        30.03S
NEW PHILLY     CLOUDY    72  71  97 CALM      30.03R
$$


USA.gov is the U.S. government's official web portal to all federal, state and local government web resources and services.